Weather History for Homestead AFB, FL

Change the Weather History Date:

Sunday, December 16, 2012

  Actual Average Record
Temperature  
Mean Temperature 72 °F -  
Max Temperature 80 °F 78 °F 85 °F (1947)
Min Temperature 64 °F 58 °F 33 °F (1962)
Cooling Degree Days 7    
Growing Degree Days 22 (Base 50)    
Moisture  
Dew Point 66 °F    
Average Humidity 86    
Maximum Humidity 100    
Minimum Humidity 63    
Precipitation  
Precipitation 0.02 in - - ()
Sea Level Pressure  
Sea Level Pressure 30.02 in    
Wind  
Wind Speed 4 mph (East)    
Max Wind Speed 13 mph    
Max Gust Speed 17 mph    
Visibility 10 miles    
Events Rain    
Averages and records for this station are not official NWS values.
T = Trace of Precipitation, MM = Missing Value Source: NWS Daily Summary

Daily Weather History Graph

Daily Weather History Graph

Search for Another Location

Airport:

Trip Planner

Search our weather history database for the weather conditions in past years. The results will help you decide how hot, cold, wet, or windy it might be!

Date:

Astronomy

Dec. 16, 2012 Rise Set
Actual Time 7:00 AM EST 5:34 PM EST
Civil Twilight 6:35 AM EST 5:59 PM EST
Nautical Twilight 6:07 AM EST 6:27 PM EST
Astronomical Twilight 5:38 AM EST 6:56 PM EST
Moon 9:49 AM EST (12/16) 9:27 PM EST (12/16)
Length of Visible Light 11h 23m
Length of Day
10h 33m
Waxing Crescent, 16% of the Moon is Illuminated
Dec 16
Waxing Crescent
Dec 20
First Quarter
Dec 28
Full
Jan 4
Last Quarter
Jan 11
New

Hourly Weather History & Observations

Time (EST) Temp. Heat Index Dew Point Humidity Pressure Visibility Wind Dir Wind Speed Gust Speed Precip Events Conditions
12:55 AM 70.5 °F - 64.9 °F 82% 30.04 in 10.0 mi East 4.6 mph - N/A   Clear
1:55 AM 68.5 °F - 64.0 °F 85% 30.04 in 10.0 mi ENE 3.5 mph - N/A   Clear
2:55 AM 70.0 °F - 65.1 °F 85% 30.01 in 10.0 mi East 4.6 mph - N/A   Partly Cloudy
3:55 AM 69.8 °F - 64.0 °F 82% 30.00 in 10.0 mi East 4.6 mph - N/A   Clear
4:55 AM 65.7 °F - 62.6 °F 90% 30.01 in 10.0 mi Calm Calm - N/A   Clear
5:20 AM 64.4 °F - 62.6 °F 94% 30.01 in 10.0 mi Calm Calm - N/A Rain Light Rain
5:41 AM 68.0 °F - 66.2 °F 94% 30.02 in 10.0 mi NE 4.6 mph - N/A   Mostly Cloudy
5:42 AM 68.0 °F - 66.2 °F 94% 30.02 in 10.0 mi NE 5.8 mph - N/A   Mostly Cloudy
5:44 AM 68.0 °F - 66.2 °F 94% 30.02 in 10.0 mi NE 4.6 mph - N/A   Mostly Cloudy
5:45 AM 68.0 °F - 66.2 °F 94% 30.02 in 10.0 mi NE 4.6 mph - N/A   Light Drizzle
5:55 AM 68.7 °F - 66.7 °F 93% 30.02 in 10.0 mi NE 4.6 mph - 0.02 in   Light Drizzle
5:56 AM 69.8 °F - 68.0 °F 94% 30.02 in 10.0 mi NE 4.6 mph - N/A   Partly Cloudy
6:55 AM 66.9 °F - 65.1 °F 94% 30.04 in 10.0 mi North 4.6 mph - 0.00 in   Clear
7:08 AM 66.2 °F - 66.2 °F 100% 30.03 in 10.0 mi Calm Calm - N/A   Light Drizzle
7:17 AM 68.0 °F - 66.2 °F 94% 30.04 in 10.0 mi North 5.8 mph - N/A   Scattered Clouds
7:55 AM 69.3 °F - 68.0 °F 96% 30.05 in 10.0 mi Calm Calm - 0.00 in   Scattered Clouds
8:48 AM 71.6 °F - 69.8 °F 94% 30.06 in 10.0 mi East 5.8 mph - N/A Rain Light Rain
8:55 AM 71.6 °F - 70.0 °F 95% 30.06 in 10.0 mi East 6.9 mph - 0.00 in   Light Drizzle
8:59 AM 73.4 °F - 69.8 °F 88% 30.06 in 10.0 mi East 4.6 mph - N/A   Partly Cloudy
9:55 AM 76.5 °F - 68.5 °F 76% 30.06 in 10.0 mi ESE 9.2 mph - 0.00 in   Clear
10:55 AM 78.4 °F - 68.5 °F 72% 30.06 in 10.0 mi SE 10.4 mph - N/A   Clear
11:55 AM 80.2 °F 83.1 °F 68.7 °F 68% 30.04 in 10.0 mi SSE 11.5 mph - N/A   Partly Cloudy
12:55 PM 80.8 °F 83.5 °F 68.2 °F 65% 30.01 in 10.0 mi SE 10.4 mph - N/A   Partly Cloudy
1:55 PM 80.6 °F 82.9 °F 66.9 °F 63% 29.99 in 10.0 mi ESE 12.7 mph 17.3 mph N/A   Scattered Clouds
2:55 PM 79.3 °F - 66.2 °F 64% 29.97 in 10.0 mi SE 8.1 mph - N/A   Clear
3:55 PM 77.5 °F - 65.8 °F 67% 29.98 in 10.0 mi SE 6.9 mph - N/A   Clear
4:55 PM 76.5 °F - 64.9 °F 67% 29.99 in 10.0 mi SE 4.6 mph - N/A   Clear
5:55 PM 72.9 °F - 65.1 °F 77% 29.99 in 10.0 mi East 4.6 mph - N/A   Clear
6:55 PM 69.1 °F - 66.6 °F 92% 29.99 in 10.0 mi Calm Calm - N/A   Clear
7:55 PM 68.0 °F - 66.4 °F 95% 29.99 in 10.0 mi Calm Calm - N/A   Clear
8:55 PM 67.1 °F - 65.7 °F 95% 29.99 in 10.0 mi Calm Calm - N/A   Clear
9:55 PM 66.2 °F - 64.8 °F 95% 30.01 in 10.0 mi Calm Calm - N/A   Clear
10:55 PM 65.7 °F - 64.8 °F 97% 29.99 in 10.0 mi Calm Calm - N/A   Clear
11:55 PM 65.8 °F - 65.5 °F 99% 30.01 in 10.0 mi Calm Calm - N/A   Clear